Location: West Cummington
(42.4920°N, 72.9680°W)
Time: 21:07:35
(UTC-04:00)

Cosmos 1703 Rocket - Visible Passes

Search period start: 28 March 2015 00:00
Search period end: 07 April 2015 00:00
Orbit: 606 x 636 km, 82.5° (Epoch: 28 March)

Date Brightness Start Highest point End Pass type
(mag) Time Alt. Az. Time Alt. Az. Time Alt. Az.
31 Mar 6.6 23:06:29 11° N 23:06:29 11° N 23:06:34 10° N visible
01 Apr 6.6 23:23:51 12° N 23:23:51 12° N 23:24:12 10° N visible
02 Apr 6.2 22:04:02 11° NNE 22:04:02 11° NNE 22:04:11 10° NNE visible
02 Apr 6.7 23:41:11 11° NNW 23:41:11 11° NNW 23:41:28 10° NNW visible
03 Apr 5.9 22:21:20 16° NNE 22:21:20 16° NNE 22:22:18 10° NNE visible
04 Apr 5.8 22:38:35 21° N 22:38:35 21° N 22:40:09 10° N visible
05 Apr 5.7 21:18:38 13° NE 21:18:38 13° NE 21:19:23 10° NE visible
05 Apr 5.9 22:55:47 22° NNW 22:55:47 22° NNW 22:57:43 10° N visible
06 Apr 5.1 21:35:47 24° NE 21:35:47 24° NE 21:37:50 10° NNE visible
06 Apr 6.2 23:12:55 17° NW 23:12:55 17° NW 23:14:53 10° NNW visible
